Weather History for Anderson, SC

Change the Weather History Date:

Monday, November 12, 2012

  Actual Average Record
Temperature  
Mean Temperature 62 °F -  
Max Temperature 70 °F 64 °F 82 °F (1989)
Min Temperature 55 °F 41 °F 24 °F (1987)
Degree Days  
Heating Degree Days 2    
Growing Degree Days 12 (Base 50)    
Moisture  
Dew Point 60 °F    
Average Humidity 90    
Maximum Humidity 100    
Minimum Humidity 68    
Precipitation  
Precipitation 0.25 in - - ()
Sea Level Pressure  
Sea Level Pressure 30.24 in    
Wind  
Wind Speed 5 mph (South)    
Max Wind Speed 13 mph    
Max Gust Speed 17 mph    
Visibility 9 miles    
Events Rain    
Averages and records for this station are not official NWS values.
T = Trace of Precipitation, MM = Missing Value Source: NWS Daily Summary

Daily Weather History Graph

Daily Weather History Graph

Search for Another Location

Airport:

Trip Planner

Search our weather history database for the weather conditions in past years. The results will help you decide how hot, cold, wet, or windy it might be!

Date:

Astronomy

Nov. 12, 2012 Rise Set
Actual Time 7:01 AM EST 5:27 PM EST
Civil Twilight 6:35 AM EST 5:54 PM EST
Nautical Twilight 6:05 AM EST 6:24 PM EST
Astronomical Twilight 5:35 AM EST 6:54 PM EST
Moon 5:28 AM EST (11/12) 4:30 PM EST (11/12)
Length of Visible Light 11h 19m
Length of Day
10h 25m
Waning Crescent, 2% of the Moon is Illuminated
Nov 12
Waning Crescent
Nov 13
New
Nov 20
First Quarter
Nov 28
Full
Dec 6
Last Quarter

Hourly Weather History & Observations

Time (EST) Temp. Dew Point Humidity Pressure Visibility Wind Dir Wind Speed Gust Speed Precip Events Conditions
12:56 AM 60.1 °F 54.0 °F 80% 30.34 in 10.0 mi ESE 5.8 mph - N/A   Mostly Cloudy
1:56 AM 60.1 °F 55.9 °F 86% 30.34 in 10.0 mi ESE 5.8 mph - N/A   Overcast
2:56 AM 59.0 °F 55.9 °F 90% 30.33 in 10.0 mi ESE 5.8 mph - N/A   Clear
3:56 AM 57.9 °F 55.9 °F 93% 30.30 in 10.0 mi ESE 6.9 mph - N/A   Clear
4:56 AM 57.0 °F 55.9 °F 96% 30.30 in 10.0 mi East 5.8 mph - N/A   Clear
5:56 AM 55.0 °F 55.0 °F 100% 30.30 in 10.0 mi East 4.6 mph - N/A   Clear
6:56 AM 55.9 °F 55.9 °F 100% 30.30 in 9.0 mi East 3.5 mph - N/A   Clear
7:26 AM 57.2 °F 55.4 °F 94% 30.32 in 9.0 mi Calm Calm - N/A   Scattered Clouds
7:56 AM 57.9 °F 57.0 °F 97% 30.31 in 9.0 mi SE 4.6 mph - N/A   Clear
8:35 AM 59.0 °F 57.2 °F 94% 30.33 in 10.0 mi Calm Calm - N/A   Mostly Cloudy
8:54 AM 60.8 °F 57.2 °F 88% 30.33 in 10.0 mi Calm Calm - N/A   Overcast
8:56 AM 60.1 °F 57.9 °F 93% 30.32 in 10.0 mi Calm Calm - N/A   Overcast
9:56 AM 62.1 °F 57.9 °F 86% 30.32 in 10.0 mi Calm Calm - N/A   Overcast
10:31 AM 62.6 °F 57.2 °F 82% 30.33 in 10.0 mi Calm Calm - N/A   Overcast
10:56 AM 64.0 °F 59.0 °F 84% 30.32 in 10.0 mi SE 5.8 mph - N/A   Overcast
11:49 AM 66.2 °F 60.8 °F 83% 30.30 in 10.0 mi South 4.6 mph - N/A   Overcast
11:56 AM 68.0 °F 60.1 °F 76% 30.28 in 10.0 mi Calm Calm - N/A   Overcast
12:13 PM 69.8 °F 60.8 °F 73% 30.28 in 10.0 mi South 5.8 mph - N/A   Mostly Cloudy
12:56 PM 70.0 °F 59.0 °F 68% 30.24 in 10.0 mi WSW 4.6 mph - N/A   Mostly Cloudy
1:35 PM 68.0 °F 60.8 °F 78% 30.23 in 1.5 mi WSW 4.6 mph - 0.06 in Rain Heavy Rain
1:44 PM 66.2 °F 60.8 °F 83% 30.23 in 3.0 mi WSW 6.9 mph - 0.06 in Rain Light Rain
1:56 PM 66.9 °F 64.0 °F 90% 30.20 in 10.0 mi SE 3.5 mph - 0.07 in   Overcast
2:03 PM 69.8 °F 62.6 °F 78% 30.22 in 10.0 mi South 8.1 mph - N/A   Mostly Cloudy
2:16 PM 69.8 °F 62.6 °F 78% 30.21 in 10.0 mi SSE 10.4 mph 17.3 mph N/A   Mostly Cloudy
2:56 PM 69.1 °F 62.1 °F 78% 30.17 in 10.0 mi South 12.7 mph - N/A   Partly Cloudy
3:56 PM 68.0 °F 61.0 °F 78% 30.19 in 10.0 mi South 6.9 mph - N/A   Overcast
4:56 PM 66.0 °F 62.1 °F 87% 30.18 in 10.0 mi SSE 8.1 mph - 0.00 in Rain Light Rain
5:56 PM 64.0 °F 63.0 °F 96% 30.17 in 10.0 mi South 5.8 mph - 0.00 in   Scattered Clouds
6:56 PM 64.0 °F 63.0 °F 96% 30.18 in 10.0 mi SSW 4.6 mph - N/A   Overcast
7:56 PM 63.0 °F 63.0 °F 100% 30.18 in 10.0 mi WSW 3.5 mph - 0.01 in Rain Light Rain
8:30 PM 64.4 °F 62.6 °F 94% 30.20 in 3.0 mi West 6.9 mph - 0.15 in Rain Light Rain
8:56 PM 63.0 °F 62.1 °F 97% 30.18 in 10.0 mi West 5.8 mph - 0.15 in   Overcast
9:05 PM 62.6 °F 62.6 °F 100% 30.19 in 7.0 mi West 5.8 mph - 0.01 in Rain Light Rain
9:36 PM 62.6 °F 62.6 °F 100% 30.19 in 10.0 mi SW 3.5 mph - 0.01 in   Overcast
9:45 PM 62.6 °F 62.6 °F 100% 30.19 in 10.0 mi WSW 3.5 mph - 0.01 in   Overcast
9:56 PM 62.1 °F 62.1 °F 100% 30.18 in 10.0 mi SSW 4.6 mph - 0.01 in   Overcast
10:13 PM 62.6 °F 62.6 °F 100% 30.19 in 10.0 mi SW 4.6 mph - N/A   Overcast
10:24 PM 62.6 °F 60.8 °F 94% 30.19 in 10.0 mi WSW 3.5 mph - 0.01 in   Overcast
10:33 PM 62.6 °F 60.8 °F 94% 30.19 in 10.0 mi WSW 3.5 mph - 0.01 in   Overcast
10:56 PM 61.0 °F 61.0 °F 100% 30.18 in 10.0 mi SSW 5.8 mph - 0.01 in   Overcast
11:06 PM 60.8 °F 60.8 °F 100% 30.19 in 10.0 mi SSW 5.8 mph - N/A   Overcast
11:36 PM 60.8 °F 60.8 °F 100% 30.19 in 8.0 mi SSW 3.5 mph - N/A   Overcast
11:56 PM 61.0 °F 61.0 °F 100% 30.17 in 9.0 mi WSW 3.5 mph - N/A   Overcast